APJ494 RJSS-RJGG

Flight info

Callsign APJ494
Flight time 1h 6m
Altitude 34000
Route RIKYU Y882 GYODA Y88 SUGAL Y881 SLIDE
Aircraft A320/M-SDE3FGHIRWY/LB1

Departure

Time 2026-05-04 14:09
Airport Sendai Airport (RJSS)

Arrival

Time 2026-05-04 15:16
Airport Chubu Centrair International Airport (RJGG)
Time Latitude Longitude Altitude Speed Heading
2026-05-04 13:38 38.13876 140.92794 13 ft 0 kts 172°
2026-05-04 14:02 38.13892 140.92791 14 ft 4 kts 172°
2026-05-04 14:02 38.13919 140.92786 14 ft 4 kts 173°
2026-05-04 14:02 38.13946 140.92782 13 ft 4 kts 174°
2026-05-04 14:03 38.13973 140.92780 13 ft 4 kts 179°
2026-05-04 14:03 38.13999 140.92783 14 ft 4 kts 209°
2026-05-04 14:03 38.14009 140.92793 14 ft 0 kts 262°
2026-05-04 14:05 38.14003 140.92741 13 ft 11 kts 262°
2026-05-04 14:05 38.13995 140.92642 13 ft 12 kts 267°
2026-05-04 14:05 38.14039 140.92569 15 ft 10 kts 346°
2026-05-04 14:06 38.14062 140.92562 15 ft 0 kts 346°
2026-05-04 14:06 38.14063 140.92562 15 ft 1 kts 346°
2026-05-04 14:06 38.14070 140.92560 17 ft 2 kts 347°
2026-05-04 14:06 38.14113 140.92549 20 ft 11 kts 349°
2026-05-04 14:07 38.14146 140.92513 20 ft 6 kts 276°
2026-05-04 14:07 38.14145 140.92478 20 ft 0 kts 263°
2026-05-04 14:08 38.14145 140.92477 20 ft 0 kts 263°
2026-05-04 14:08 38.14123 140.92256 19 ft 61 kts 263°
2026-05-04 14:09 38.13914 140.90281 461 ft 132 kts 264°
2026-05-04 14:09 38.13604 140.89201 1200 ft 137 kts 232°
2026-05-04 14:10 38.11500 140.89430 2188 ft 202 kts 144°
2026-05-04 14:10 38.10546 140.90858 2551 ft 222 kts 128°
2026-05-04 14:10 38.09659 140.92570 2814 ft 243 kts 125°
2026-05-04 14:10 38.08717 140.94464 3120 ft 262 kts 124°
2026-05-04 14:11 38.07674 140.96518 3512 ft 284 kts 125°
2026-05-04 14:11 38.04628 140.99748 4742 ft 289 kts 178°
2026-05-04 14:11 38.02678 140.99765 5563 ft 275 kts 201°
2026-05-04 14:12 38.00944 140.98924 6374 ft 262 kts 224°
2026-05-04 14:12 37.99585 140.97472 7207 ft 254 kts 233°
2026-05-04 14:12 37.96995 140.94374 8979 ft 258 kts 232°
2026-05-04 14:13 37.95680 140.92811 9830 ft 260 kts 231°
2026-05-04 14:13 37.94346 140.91230 10471 ft 270 kts 230°
2026-05-04 14:13 37.92920 140.89529 10702 ft 293 kts 230°
2026-05-04 14:13 37.91399 140.87719 11188 ft 305 kts 229°
2026-05-04 14:14 37.89842 140.85878 11956 ft 307 kts 228°
2026-05-04 14:14 37.86698 140.82179 13590 ft 309 kts 226°
2026-05-04 14:14 37.85123 140.80325 14297 ft 309 kts 226°
2026-05-04 14:15 37.81978 140.76623 15701 ft 308 kts 225°
2026-05-04 14:15 37.78851 140.72943 17169 ft 306 kts 225°
2026-05-04 14:16 37.75722 140.69270 18498 ft 307 kts 225°
2026-05-04 14:16 37.74155 140.67429 19068 ft 308 kts 225°
2026-05-04 14:17 37.70997 140.63712 20161 ft 311 kts 226°
2026-05-04 14:17 37.69411 140.61849 20705 ft 312 kts 226°
2026-05-04 14:17 37.66207 140.58086 21727 ft 316 kts 227°
2026-05-04 14:18 37.64591 140.56196 22252 ft 317 kts 227°
2026-05-04 14:18 37.61335 140.52391 23266 ft 321 kts 227°
2026-05-04 14:19 37.58046 140.48550 24114 ft 324 kts 227°
2026-05-04 14:19 37.56402 140.46601 24506 ft 324 kts 230°
2026-05-04 14:19 37.55032 140.44367 24889 ft 322 kts 239°
2026-05-04 14:19 37.53878 140.41942 25286 ft 323 kts 239°
2026-05-04 14:20 37.52713 140.39512 25666 ft 324 kts 239°
2026-05-04 14:20 37.51540 140.37085 26054 ft 325 kts 239°
2026-05-04 14:20 37.50361 140.34649 26424 ft 326 kts 239°
2026-05-04 14:21 37.47990 140.29752 27195 ft 329 kts 239°
2026-05-04 14:21 37.46803 140.27289 27560 ft 330 kts 239°
2026-05-04 14:21 37.45609 140.24818 27937 ft 331 kts 239°
2026-05-04 14:21 37.44408 140.22342 28250 ft 332 kts 239°
2026-05-04 14:22 37.43202 140.19862 28618 ft 332 kts 239°
2026-05-04 14:22 37.41993 140.17376 28956 ft 334 kts 238°
2026-05-04 14:22 37.40780 140.14879 29291 ft 335 kts 239°
2026-05-04 14:22 37.39562 140.12371 29618 ft 337 kts 239°
2026-05-04 14:23 37.37110 140.07327 30206 ft 339 kts 239°
2026-05-04 14:23 37.35878 140.04792 30480 ft 341 kts 239°
2026-05-04 14:23 37.34639 140.02244 30717 ft 342 kts 239°
2026-05-04 14:24 37.33393 139.99690 31010 ft 343 kts 238°
2026-05-04 14:24 37.32149 139.97142 31388 ft 341 kts 238°
2026-05-04 14:24 37.30765 139.94737 31775 ft 341 kts 230°
2026-05-04 14:24 37.28962 139.92782 32133 ft 346 kts 219°
2026-05-04 14:25 37.26792 139.91402 32501 ft 356 kts 208°
2026-05-04 14:25 37.21984 139.89698 33236 ft 358 kts 206°
2026-05-04 14:25 37.19592 139.88876 33620 ft 356 kts 206°
2026-05-04 14:26 37.17208 139.88052 33874 ft 354 kts 206°
2026-05-04 14:26 37.14851 139.87238 33909 ft 348 kts 206°
2026-05-04 14:26 37.10213 139.85634 33909 ft 344 kts 206°
2026-05-04 14:27 37.05611 139.84032 33914 ft 343 kts 206°
2026-05-04 14:27 37.01018 139.82439 33899 ft 343 kts 206°
2026-05-04 14:28 36.96401 139.80839 33891 ft 341 kts 206°
2026-05-04 14:28 36.91838 139.79253 33878 ft 340 kts 206°
2026-05-04 14:29 36.82678 139.76094 33867 ft 341 kts 206°
2026-05-04 14:30 36.78104 139.74526 33867 ft 340 kts 206°
2026-05-04 14:31 36.71257 139.72181 33860 ft 340 kts 206°
2026-05-04 14:32 36.62132 139.69051 33862 ft 340 kts 206°
2026-05-04 14:32 36.57561 139.67488 33872 ft 341 kts 206°
2026-05-04 14:33 36.53763 139.66186 33874 ft 341 kts 206°
2026-05-04 14:33 36.49194 139.64622 33871 ft 340 kts 206°
2026-05-04 14:34 36.44621 139.63062 33868 ft 341 kts 206°
2026-05-04 14:34 36.40202 139.61169 33869 ft 328 kts 217°
2026-05-04 14:35 36.36781 139.57657 33867 ft 318 kts 229°
2026-05-04 14:35 36.33741 139.53676 33883 ft 318 kts 229°
2026-05-04 14:36 36.30695 139.49707 33873 ft 318 kts 229°
2026-05-04 14:36 36.27642 139.45734 33877 ft 319 kts 229°
2026-05-04 14:37 36.24584 139.41754 33881 ft 319 kts 229°
2026-05-04 14:37 36.21684 139.37972 33883 ft 319 kts 229°
2026-05-04 14:38 36.18621 139.33990 33884 ft 319 kts 229°
2026-05-04 14:38 36.15882 139.29719 33891 ft 318 kts 242°
2026-05-04 14:39 36.14031 139.24743 33892 ft 318 kts 243°
2026-05-04 14:39 36.12185 139.19768 33895 ft 318 kts 243°
2026-05-04 14:40 36.09394 139.12269 33895 ft 319 kts 243°
2026-05-04 14:40 36.07550 139.07315 33896 ft 320 kts 243°
2026-05-04 14:41 36.05666 139.02292 33901 ft 320 kts 243°
2026-05-04 14:42 36.01917 138.92291 33892 ft 321 kts 243°
2026-05-04 14:42 36.00034 138.87278 33899 ft 322 kts 243°
2026-05-04 14:43 35.98148 138.82262 33894 ft 322 kts 243°
2026-05-04 14:43 35.96263 138.77258 33896 ft 321 kts 243°
2026-05-04 14:44 35.94376 138.72254 33903 ft 322 kts 243°
2026-05-04 14:44 35.92483 138.67249 33904 ft 322 kts 243°
2026-05-04 14:45 35.90592 138.62239 33905 ft 321 kts 243°
2026-05-04 14:45 35.88695 138.57237 33916 ft 323 kts 243°
2026-05-04 14:46 35.86784 138.52236 33919 ft 322 kts 243°
2026-05-04 14:46 35.84872 138.47250 33921 ft 322 kts 243°
2026-05-04 14:47 35.82965 138.42256 33926 ft 322 kts 243°
2026-05-04 14:47 35.81057 138.37273 33930 ft 321 kts 243°
2026-05-04 14:48 35.79148 138.32297 33935 ft 321 kts 243°
2026-05-04 14:48 35.77242 138.27331 33941 ft 320 kts 243°
2026-05-04 14:49 35.75334 138.22366 33945 ft 321 kts 243°
2026-05-04 14:49 35.73420 138.17401 33950 ft 322 kts 243°
2026-05-04 14:50 35.71500 138.12440 33961 ft 321 kts 243°
2026-05-04 14:50 35.69585 138.07488 33967 ft 320 kts 243°
2026-05-04 14:51 35.67675 138.02551 33964 ft 320 kts 243°
2026-05-04 14:51 35.65803 137.97601 33974 ft 319 kts 244°
2026-05-04 14:52 35.64020 137.92600 33966 ft 319 kts 245°
2026-05-04 14:52 35.62242 137.87609 33967 ft 319 kts 245°
2026-05-04 14:53 35.61345 137.85107 33722 ft 321 kts 245°
2026-05-04 14:53 35.60444 137.82607 33253 ft 319 kts 244°
2026-05-04 14:53 35.59484 137.80162 32792 ft 316 kts 239°
2026-05-04 14:53 35.58161 137.78015 32322 ft 316 kts 230°
2026-05-04 14:54 35.56623 137.76098 31860 ft 314 kts 230°
2026-05-04 14:54 35.55089 137.74197 31418 ft 312 kts 230°
2026-05-04 14:54 35.53568 137.72309 30974 ft 310 kts 230°
2026-05-04 14:54 35.52057 137.70431 30545 ft 309 kts 230°
2026-05-04 14:55 35.50552 137.68561 30121 ft 307 kts 230°
2026-05-04 14:55 35.49078 137.66681 29629 ft 305 kts 231°
2026-05-04 14:55 35.47659 137.64753 29130 ft 304 kts 232°
2026-05-04 14:55 35.46268 137.62806 28649 ft 303 kts 233°
2026-05-04 14:56 35.44887 137.60861 28172 ft 301 kts 233°
2026-05-04 14:56 35.43509 137.58924 27712 ft 302 kts 233°
2026-05-04 14:56 35.42125 137.56994 27252 ft 301 kts 232°
2026-05-04 14:56 35.40740 137.55074 26799 ft 300 kts 233°
2026-05-04 14:57 35.39356 137.53161 26357 ft 300 kts 233°
2026-05-04 14:57 35.37968 137.51252 25915 ft 300 kts 233°
2026-05-04 14:57 35.36579 137.49343 25493 ft 300 kts 233°
2026-05-04 14:57 35.35189 137.47433 25077 ft 300 kts 233°
2026-05-04 14:58 35.33798 137.45526 24651 ft 300 kts 233°
2026-05-04 14:58 35.32406 137.43617 24231 ft 300 kts 233°
2026-05-04 14:58 35.31013 137.41708 23832 ft 301 kts 233°
2026-05-04 14:58 35.29526 137.39888 23408 ft 306 kts 225°
2026-05-04 14:59 35.27691 137.38502 22918 ft 316 kts 213°
2026-05-04 14:59 35.25662 137.37446 22433 ft 317 kts 212°
2026-05-04 14:59 35.21593 137.35348 21452 ft 313 kts 212°
2026-05-04 15:00 35.19582 137.34305 20718 ft 319 kts 212°
2026-05-04 15:00 35.17500 137.33215 19889 ft 330 kts 211°
2026-05-04 15:00 35.15415 137.32132 19494 ft 328 kts 211°
2026-05-04 15:01 35.11320 137.30043 18641 ft 304 kts 211°
2026-05-04 15:01 35.09409 137.29067 18223 ft 292 kts 211°
2026-05-04 15:01 35.07560 137.28113 17747 ft 289 kts 212°
2026-05-04 15:01 35.05704 137.27147 17272 ft 291 kts 212°
2026-05-04 15:02 35.03839 137.26176 16809 ft 293 kts 212°
2026-05-04 15:02 35.01988 137.25211 16355 ft 294 kts 211°
2026-05-04 15:02 35.00075 137.24218 15892 ft 295 kts 211°
2026-05-04 15:02 34.98181 137.23239 15453 ft 297 kts 211°
2026-05-04 15:03 34.96274 137.22257 15013 ft 298 kts 211°
2026-05-04 15:03 34.94367 137.21278 14578 ft 299 kts 211°
2026-05-04 15:03 34.92434 137.20285 14158 ft 301 kts 211°
2026-05-04 15:03 34.90532 137.19305 13745 ft 301 kts 211°
2026-05-04 15:04 34.89960 137.19009 13602 ft 302 kts 211°
2026-05-04 15:04 34.88023 137.18007 13128 ft 303 kts 211°
2026-05-04 15:04 34.86132 137.17039 12670 ft 294 kts 211°
2026-05-04 15:04 34.84249 137.16085 12205 ft 285 kts 211°
2026-05-04 15:05 34.82425 137.15162 11759 ft 285 kts 211°
2026-05-04 15:05 34.80590 137.14224 11320 ft 288 kts 211°
2026-05-04 15:05 34.78738 137.13271 10880 ft 290 kts 212°
2026-05-04 15:05 34.76878 137.12313 10450 ft 291 kts 211°
2026-05-04 15:06 34.75002 137.11351 10023 ft 293 kts 211°
2026-05-04 15:06 34.73119 137.10387 9561 ft 294 kts 211°
2026-05-04 15:06 34.71229 137.09419 9088 ft 295 kts 211°
2026-05-04 15:07 34.67882 137.06798 8148 ft 280 kts 234°
2026-05-04 15:07 34.66677 137.04966 7701 ft 277 kts 239°
2026-05-04 15:07 34.65502 137.03107 7250 ft 278 kts 239°
2026-05-04 15:07 34.64318 137.01249 6815 ft 279 kts 239°
2026-05-04 15:08 34.63152 136.99427 6496 ft 275 kts 239°
2026-05-04 15:08 34.61977 136.97594 6201 ft 268 kts 239°
2026-05-04 15:08 34.60869 136.95808 5922 ft 259 kts 245°
2026-05-04 15:08 34.60129 136.93888 5639 ft 245 kts 260°
2026-05-04 15:09 34.59773 136.91916 5360 ft 236 kts 266°
2026-05-04 15:09 34.59474 136.90004 5080 ft 230 kts 269°
2026-05-04 15:09 34.59649 136.88175 4894 ft 207 kts 300°
2026-05-04 15:10 34.61810 136.86284 4521 ft 200 kts 346°
2026-05-04 15:10 34.63176 136.85964 4259 ft 200 kts 346°
2026-05-04 15:10 34.65422 136.85434 3827 ft 196 kts 346°
2026-05-04 15:11 34.66754 136.85116 3548 ft 193 kts 346°
2026-05-04 15:11 34.68042 136.84809 3299 ft 184 kts 346°
2026-05-04 15:11 34.69271 136.84515 3052 ft 176 kts 346°
2026-05-04 15:11 34.70443 136.84235 2828 ft 168 kts 346°
2026-05-04 15:12 34.71565 136.83966 2593 ft 161 kts 346°
2026-05-04 15:12 34.72645 136.83707 2377 ft 155 kts 346°
2026-05-04 15:12 34.73678 136.83460 2170 ft 147 kts 346°
2026-05-04 15:12 34.74659 136.83225 1971 ft 141 kts 345°
2026-05-04 15:13 34.75606 136.82998 1785 ft 136 kts 345°
2026-05-04 15:13 34.76531 136.82775 1598 ft 135 kts 345°
2026-05-04 15:13 34.77448 136.82555 1417 ft 134 kts 345°
2026-05-04 15:13 34.78362 136.82336 1235 ft 134 kts 345°
2026-05-04 15:14 34.79276 136.82117 1047 ft 134 kts 346°
2026-05-04 15:14 34.80206 136.81893 874 ft 134 kts 345°
2026-05-04 15:14 34.81098 136.81677 728 ft 131 kts 344°
2026-05-04 15:14 34.81988 136.81453 568 ft 131 kts 343°
2026-05-04 15:15 34.82896 136.81222 382 ft 132 kts 343°
2026-05-04 15:15 34.83785 136.81010 180 ft 132 kts 345°
2026-05-04 15:15 34.84684 136.80812 40 ft 126 kts 345°
2026-05-04 15:16 34.85904 136.80519 27 ft 43 kts 351°
2026-05-04 15:16 34.86154 136.80500 27 ft 32 kts
2026-05-04 15:16 34.86369 136.80591 28 ft 9 kts 15°
2026-05-04 15:17 34.86437 136.80616 28 ft 11 kts 20°
2026-05-04 15:17 34.86432 136.80749 28 ft 12 kts 149°
2026-05-04 15:17 34.86337 136.80782 28 ft 14 kts 136°
2026-05-04 15:18 34.86328 136.80885 28 ft 12 kts 89°
2026-05-04 15:18 34.86345 136.80975 28 ft 10 kts 77°
2026-05-04 15:18 34.86359 136.81057 28 ft 9 kts 78°
2026-05-04 15:19 34.86275 136.81120 28 ft 8 kts 168°
2026-05-04 15:19 34.86210 136.81135 28 ft 9 kts 170°
2026-05-04 15:19 34.86170 136.81208 28 ft 6 kts 79°
2026-05-04 15:20 34.86177 136.81251 28 ft 2 kts 78°
2026-05-04 15:20 34.86179 136.81259 28 ft 0 kts 78°